Home   Weather   Kampala   Past weeks

Flag for Uganda Past Weather in Kampala, Uganda — Yesterday and Last 2 Weeks

Now
68 °F

Passing clouds.


Feels Like: 68 °F
Forecast: 58 / 82 °F
Wind: 6 mph from Southwest

Location: Entebbe Airport

Current Time: Sep 1, 2016 at 12:55:17 AM

Latest Report: Sep 1, 2016 at 12:00 AM


Visibility: 6 mi

Pressure: 30.09 "Hg (26.07 "Hg at 1230m altitude)

Humidity: 88%

Dew Point: 64 °F

Location of KampalaLocation

Past Weather in Kampala — Graph

°F

Kampala Temperature Yesterday

Maximum temperature yesterday: 79 °F (at 4:00 PM)
Minimum temperature yesterday: 66 °F (at 7:00 AM)
Average temperature yesterday: 73 °F

High & Low Weather Summary for the Past Weeks

 TemperatureHumidityPressure
High84 °F (Aug 23, 2:00 PM)100% (Aug 23, 1:00 AM)30.21 "Hg (Aug 23, 1:00 AM)
Low54 °F (Aug 25, 4:00 AM)48% (Aug 23, 2:00 PM)29.98 "Hg (Aug 23, 5:00 PM)
Average73 °F75%30.06 "Hg
* Reported Aug 16 8:00 PM — Aug 31 8:00 PM, Kampala, Weather by CustomWeather, © 2016

Note: Actual official high and low records may vary slightly from our data, if they occured in-between our weather recording intervals... More about our weather records

Advertising

Kampala Weather History for the Previous 24 Hours

Scroll right to see more
 ConditionsComfort  
Time TempWeatherWind HumidityBarometerVisibility
8:00 PM
Wed, Aug 31
73 °FPassing clouds.9 mph69%30.07 "Hg6 mi
7:00 PM75 °FPassing clouds.6 mph65%30.07 "HgN/A
6:00 PM75 °FPassing clouds.9 mph74%30.04 "HgN/A
5:00 PM79 °FPassing clouds.8 mph61%30.04 "HgN/A
4:00 PM79 °FPassing clouds.9 mph58%30.04 "HgN/A
3:00 PM77 °FScattered clouds.15 mph61%30.07 "HgN/A
2:00 PM77 °FPartly sunny.13 mph61%30.09 "HgN/A
11:00 AM73 °FThundershowers. Cloudy.15 mph74%30.15 "Hg6 mi
10:00 AM77 °FThunderstorms. Cloudy.7 mph69%30.15 "Hg5 mi
9:00 AM72 °FScattered clouds.5 mph78%30.12 "Hg5 mi
8:00 AM68 °FScattered clouds.3 mph83%30.09 "Hg6 mi
7:00 AM66 °FPassing clouds.3 mph94%30.07 "HgN/A
6:00 AM70 °FPassing clouds.3 mph88%30.04 "HgN/A
5:00 AM70 °FPassing clouds.2 mph83%30.04 "HgN/A
4:00 AM70 °FPassing clouds.3 mph73%30.04 "HgN/A
3:00 AM68 °FPassing clouds.5 mph83%30.04 "HgN/A
1:00 AM68 °FPassing clouds.7 mph88%30.07 "HgN/A
12:00 AM70 °FPassing clouds.6 mph83%30.07 "HgN/A
Weather by CustomWeather, © 2016

See weather overviewHow to use our weather pages